Location: Walnut Street Observatory
(41.0583°N, 76.2295°W)
Time: 18:54:59
(UTC-04:00)

Daily predictions for brighter satellites

Satellite Brightness Start Highest point End
(mag) Time Altitude Azimuth Time Altitude Azimuth Time Altitude Azimuth
ALOS 2.4 19:19:44 10° SSE 19:24:18 58° ENE 19:28:54 10° N
Cosmos 1943 4.5 19:18:56 10° SW 19:24:23 46° WNW 19:29:53 10° NNE
Cosmos 1271 Rocket 3.0 19:22:20 10° SSW 19:26:05 73° W 19:29:56 10° N
USA 81 4.3 19:22:07 10° N 19:27:15 49° E 19:32:20 10° SSE
Cosmos 2150 Rocket 4.1 19:22:51 10° NNW 19:28:12 72° ENE 19:33:36 10° SSE
COSMO-SKYMED 1 3.2 19:26:44 10° N 19:31:03 64° WNW 19:35:20 10° SSW
USA 229 DEB 4.2 19:24:41 10° NW 19:31:52 74° WSW 19:39:09 10° SSE
USA 229 4.1 19:24:47 10° NW 19:31:58 74° WSW 19:39:15 10° SSE
SAR-Lupe-3 4.5 19:31:58 10° NNE 19:35:34 80° ESE 19:39:08 10° S
Cosmos 2181 Rocket 4.0 19:29:46 10° N 19:35:59 79° E 19:42:07 10° S
NOSS 3-1 (A) 4.3 19:28:54 10° NNW 19:36:18 55° NE 19:44:29 10° SE
Cosmos 1758 Rocket 3.7 19:32:35 10° N 19:37:07 89° W 19:41:36 10° S
Cosmos 841 Rocket 3.5 19:32:54 10° S 19:37:56 61° ESE 19:43:01 10° NNE
Cosmos 1340 Rocket 3.2 19:37:03 10° NNW 19:41:07 70° W 19:45:10 10° S
Cosmos 1726 Rocket 3.6 19:37:04 10° S 19:41:25 84° W 19:45:46 10° N
Cosmos 1937 Rocket 3.7 19:37:03 10° NNW 19:42:22 77° WSW 19:47:37 10° SSE
FREGAT/IRIS 2.8 19:39:39 10° SSE 19:42:35 49° ENE 19:45:33 10° N
Cosmos 389 Rocket 3.6 19:39:22 10° SSW 19:42:45 48° WNW 19:46:09 10° N
NOSS 3-1 (C) 4.1 19:37:24 10° NNW 19:45:02 76° NE 19:53:30 10° SE
Cosmos 2084 3.6 19:43:31 10° SW 19:47:35 67° NW 19:51:29 10° NNE
Cosmos 2074 Rocket 4.1 19:43:10 10° SSE 19:49:10 55° E 19:55:12 10° NNE
CZ-2D R/B 4.3 19:47:59 11° SE 19:50:56 26° ENE 19:54:08 10° NNE
Cosmos 1943 Rocket 3.5 19:49:06 10° NW 19:54:21 43° WSW 19:59:36 10° S
Cosmos 540 Rocket 3.8 19:50:09 10° S 19:54:55 42° ESE 19:59:44 10° NNE
Cosmos 1763 Rocket 3.9 19:52:10 10° SSW 19:57:14 67° WNW 20:02:24 10° NNE
HJ-1C 3.4 19:56:51 10° SSE 20:00:07 54° ENE 20:03:25 10° N
Meteor 1-24 Rocket 3.8 19:54:47 10° N 20:00:44 64° ENE 20:06:27 10° SSE
Cosmos 2228 3.5 20:02:47 10° SSW 20:07:07 66° W 20:11:26 10° N
SJ-6B 2.8 20:08:49 10° SSE 20:12:50 89° W 20:16:47 10° NNW
Cosmos 1953 3.6 20:17:35 23° ENE 20:17:35 23° ENE 20:20:01 10° NNE
Resurs 01 Rocket 1.9 20:14:19 20° SE 20:17:04 45° ENE 20:21:17 10° N
Nadezhda 3 Rocket 4.3 20:12:01 10° N 20:18:04 46° ENE 20:23:05 14° SE
Cosmos 1356 Rocket 3.8 20:15:54 10° NNW 20:20:11 67° W 20:24:27 10° S
GP-B 3.4 20:16:24 10° NNE 20:20:39 43° E 20:23:34 18° SSE
Cosmos 1812 Rocket 3.6 20:16:35 10° S 20:20:55 54° E 20:25:18 10° NNE
Meteor 2-8 Rocket 4.4 20:16:11 10° N 20:22:20 71° E 20:28:23 10° SSE
H-2A R/B 3.4 20:21:13 10° S 20:24:50 53° W 20:28:32 10° NNW
Cosmos 2184 Rocket 4.2 20:20:36 10° S 20:26:54 79° W 20:33:19 10° N
Spot 2 Rocket 3.6 20:24:52 23° SE 20:27:51 53° ENE 20:32:45 10° N
Cosmos 1656 Rocket 4.4 20:23:15 10° NNW 20:28:43 52° WSW 20:34:04 10° S
Cosmos 1610 Rocket 4.5 20:26:39 10° S 20:33:00 82° E 20:39:26 10° N
BREEZE-M DEB (TANK) 3.4 20:31:47 10° NNW 20:32:50 16° N 20:32:50 16° N
USA 186 3.9 20:36:33 12° N 20:36:33 12° N 20:36:45 10° N
Meteor 2-19 Rocket 4.3 20:28:28 10° S 20:34:29 74° E 20:40:32 10° NNE
Cosmos 292 Rocket 3.9 20:34:08 10° S 20:38:47 49° ESE 20:43:28 10° NNE
Milstar 3 Cent rocket 3.6 20:38:53 10° SSW 20:42:05 17° S 20:42:11 17° S
COSMOS 2406 3.7 20:39:28 10° SW 20:45:05 61° WNW 20:50:48 10° NNE
BREEZE-M (TANK) 4.3 20:34:07 10° WNW 20:45:48 46° SW 20:48:01 24° S
Cosmos 783 Rocket 4.4 20:40:45 10° S 20:45:54 66° ESE 20:51:04 10° NNE
Okean 3 Rocket 4.1 20:43:16 10° N 20:46:57 41° NE 20:46:57 41° NE
MOS 1-B Rocket 3.8 20:43:09 18° SSE 20:47:51 79° ENE 20:53:32 10° NNW
ISS -2.5 20:45:11 10° SW 20:47:03 31° SSW 20:47:03 31° SSW
Cosmos 1544 4.4 20:46:02 10° SSW 20:49:26 40° W 20:52:53 10° N
SL-8 Rocket 4.4 20:50:56 38° E 20:50:56 38° E 20:56:10 10° NNE
Cosmos 1125 Rocket 3.8 20:48:31 10° NNW 20:53:47 66° WSW 20:57:04 23° S
Cosmos 1356 3.8 20:52:40 10° NNW 20:56:07 61° W 20:56:11 61° WSW
BREEZE-M DEB (TANK) 3.2 20:47:22 10° WSW 20:58:08 86° NNW 20:59:22 50° ENE
Cosmos 372 Rocket 4.2 20:52:59 10° NNW 20:58:13 68° WSW 21:00:50 30° S
Cosmos 2369 4.0 20:53:38 10° NNW 20:59:02 44° ENE 20:59:14 44° ENE
Cosmos 1674 3.4 20:55:24 10° N 20:58:04 44° N 20:58:04 44° N
Envisat 3.0 20:57:59 35° S 21:00:12 83° WSW 21:05:19 10° NNW
Cosmos 1758 3.4 20:59:36 50° SSW 21:00:34 75° W 21:04:34 10° N
Meteor 1-21 Rocket 4.1 20:55:18 10° N 21:01:03 74° E 21:02:33 50° SSE
ATLAS CENTAUR R/B 4.2 20:56:24 10° NW 21:06:51 38° WSW 21:09:50 20° SSW
Cosmos 962 Rocket 4.4 21:02:13 10° S 21:08:35 88° E 21:15:00 10° N
Cosmos 1939 Rocket 3.8 21:14:51 43° NNW 21:14:51 43° NNW 21:17:34 10° NNW
H-2A R/B 4.1 21:18:39 14° NNE 21:18:39 14° NNE 21:19:40 10° NNE
SJ-11-01 4.3 21:16:34 78° NNW 21:16:34 78° NNW 21:20:59 10° NNW
ATLAS 2AS CENTAUR R/B 3.2 21:10:37 10° NNW 21:18:26 51° NE 21:19:38 47° ENE
Cosmos 2278 3.8 21:28:03 10° NNW 21:33:05 69° N 21:33:05 69° N
Cosmos 2322 Rocket 4.5 21:43:27 10° NNE 21:44:25 12° NNE 21:44:25 12° NNE
Resurs 01 Rocket 4.2 21:51:54 13° WSW 21:53:45 16° W 21:56:33 10° NW
Cosmos 1697 Rocket 3.7 21:50:29 10° NNW 21:54:10 41° N 21:54:10 41° N
Cosmos 1656 4.4 21:51:23 10° NNW 21:55:33 50° NNW 21:55:33 50° NNW
FALCON 9 R/B 3.7 21:53:10 10° WSW 21:55:15 29° SW 21:55:15 29° SW
Cosmos 1980 Rocket 3.7 21:52:12 10° N 21:55:07 28° N 21:55:07 28° N
SL-16 R/B 4.4 22:19:39 10° N 22:21:08 16° N 22:21:08 16° N
CZ-3A R/B 4.4 22:31:27 10° WNW 22:48:50 52° NNE 22:48:58 52° NNE
ATLAS 2AS CENTAUR R/B 4.2 23:02:05 10° NW 23:07:05 33° WNW 23:07:05 33° WNW
